Time,TemperatureF,DewpointF,PressureIn,WindDirection,WindDirectionDegrees,WindSpeedMPH,WindSpeedGustMPH,Humidity,HourlyPrecipIn,Conditions,Clouds,dailyrainin,SoftwareType,DateUTC
2013-01-09 00:02:00,47.1,44.0,30.36,WNW,292,2.1,-999.0,92,0.00,,,0.00,Rainwise IP-100,2013-01-09 08:02:00,
2013-01-09 00:07:00,47.0,44.0,30.36,WNW,292,0.0,-999.0,92,0.00,,,0.00,Rainwise IP-100,2013-01-09 08:07:00,
2013-01-09 00:12:00,46.8,44.0,30.35,WNW,292,0.0,-999.0,92,0.00,,,0.00,Rainwise IP-100,2013-01-09 08:12:00,
2013-01-09 00:17:00,46.5,44.0,30.35,WNW,292,0.0,-999.0,91,0.00,,,0.00,Rainwise IP-100,2013-01-09 08:17:00,
2013-01-09 00:22:00,46.3,43.0,30.35,WNW,292,0.0,-999.0,91,0.00,,,0.00,Rainwise IP-100,2013-01-09 08:22:00,
2013-01-09 00:27:00,46.1,44.0,30.35,WNW,292,0.0,-999.0,92,0.00,,,0.00,Rainwise IP-100,2013-01-09 08:27:00,
2013-01-09 00:32:00,45.8,44.0,30.35,ESE,112,0.0,-999.0,92,0.00,,,0.00,Rainwise IP-100,2013-01-09 08:32:00,
2013-01-09 00:37:00,45.8,44.0,30.35,ESE,112,0.0,-999.0,92,0.00,,,0.00,Rainwise IP-100,2013-01-09 08:37:00,
2013-01-09 00:42:00,46.1,44.0,30.35,ESE,112,0.0,-999.0,92,0.00,,,0.00,Rainwise IP-100,2013-01-09 08:42:00,
2013-01-09 00:47:00,46.1,43.0,30.35,ESE,112,0.0,-999.0,91,0.00,,,0.00,Rainwise IP-100,2013-01-09 08:47:00,
2013-01-09 00:52:00,46.0,43.0,30.35,ESE,112,0.0,-999.0,91,0.00,,,0.00,Rainwise IP-100,2013-01-09 08:52:00,
2013-01-09 00:55:00,46.1,43.0,30.35,SSW,202,0.0,-999.0,91,0.00,,,0.00,Rainwise IP-100,2013-01-09 08:55:00,
2013-01-09 00:56:00,46.1,43.0,30.35,SSW,202,0.0,-999.0,91,0.00,,,0.00,Rainwise IP-100,2013-01-09 08:56:00,
2013-01-09 01:01:00,46.2,43.0,30.35,SSW,202,0.0,-999.0,91,0.00,,,0.00,Rainwise IP-100,2013-01-09 09:01:00,
2013-01-09 01:07:00,46.1,43.0,30.36,SSW,202,0.0,-999.0,90,0.00,,,0.00,Rainwise IP-100,2013-01-09 09:07:00,
2013-01-09 01:12:00,46.1,43.0,30.36,WNW,292,1.6,-999.0,90,0.00,,,0.00,Rainwise IP-100,2013-01-09 09:12:00,
2013-01-09 01:17:00,46.3,43.0,30.35,NW,315,0.0,-999.0,90,0.00,,,0.00,Rainwise IP-100,2013-01-09 09:17:00,
2013-01-09 01:22:00,46.3,43.0,30.34,NW,315,1.4,-999.0,90,0.00,,,0.00,Rainwise IP-100,2013-01-09 09:22:00,
2013-01-09 01:27:00,46.4,43.0,30.34,NNE,22,0.0,-999.0,89,0.00,,,0.00,Rainwise IP-100,2013-01-09 09:27:00,
2013-01-09 01:32:00,46.7,43.0,30.34,East,90,0.0,-999.0,89,0.00,,,0.00,Rainwise IP-100,2013-01-09 09:32:00,
2013-01-09 01:37:00,46.8,43.0,30.35,East,90,0.0,-999.0,89,0.00,,,0.00,Rainwise IP-100,2013-01-09 09:37:00,
2013-01-09 01:42:00,46.6,43.0,30.34,East,90,0.0,-999.0,89,0.00,,,0.00,Rainwise IP-100,2013-01-09 09:42:00,
2013-01-09 01:47:00,46.4,43.0,30.34,ENE,67,1.6,-999.0,89,0.00,,,0.00,Rainwise IP-100,2013-01-09 09:47:00,
2013-01-09 01:52:00,46.4,43.0,30.34,North,360,1.6,-999.0,89,0.00,,,0.00,Rainwise IP-100,2013-01-09 09:52:00,
2013-01-09 01:57:00,46.6,43.0,30.35,SE,135,0.0,-999.0,89,0.00,,,0.00,Rainwise IP-100,2013-01-09 09:57:00,
2013-01-09 02:02:00,46.6,43.0,30.34,NE,45,2.3,-999.0,89,0.00,,,0.00,Rainwise IP-100,2013-01-09 10:02:00,
2013-01-09 02:07:00,46.4,43.0,30.35,NNE,22,0.0,-999.0,89,0.00,,,0.00,Rainwise IP-100,2013-01-09 10:07:00,
2013-01-09 02:12:00,46.4,43.0,30.36,WNW,292,1.9,-999.0,89,0.00,,,0.00,Rainwise IP-100,2013-01-09 10:12:00,
2013-01-09 02:17:00,46.3,43.0,30.34,North,360,0.0,-999.0,89,0.00,,,0.00,Rainwise IP-100,2013-01-09 10:17:00,
2013-01-09 02:22:00,46.1,43.0,30.33,NE,45,0.0,-999.0,89,0.00,,,0.00,Rainwise IP-100,2013-01-09 10:22:00,
2013-01-09 02:27:00,46.0,43.0,30.34,NE,45,0.0,-999.0,90,0.00,,,0.00,Rainwise IP-100,2013-01-09 10:27:00,
2013-01-09 02:32:00,46.0,43.0,30.34,SSW,202,0.0,-999.0,90,0.00,,,0.00,Rainwise IP-100,2013-01-09 10:32:00,
2013-01-09 02:37:00,46.0,43.0,30.34,SSW,202,0.0,-999.0,90,0.00,,,0.00,Rainwise IP-100,2013-01-09 10:37:00,
2013-01-09 02:42:00,45.8,43.0,30.33,North,360,0.0,-999.0,90,0.00,,,0.00,Rainwise IP-100,2013-01-09 10:42:00,
2013-01-09 02:47:00,45.7,43.0,30.34,North,360,4.4,-999.0,90,0.00,,,0.00,Rainwise IP-100,2013-01-09 10:47:00,
2013-01-09 02:52:00,46.0,43.0,30.33,NW,315,3.0,-999.0,90,0.00,,,0.00,Rainwise IP-100,2013-01-09 10:52:00,
2013-01-09 02:57:00,46.4,43.0,30.32,WNW,292,0.0,-999.0,89,0.00,,,0.00,Rainwise IP-100,2013-01-09 10:57:00,
2013-01-09 03:02:00,46.4,43.0,30.33,NE,45,2.1,-999.0,89,0.00,,,0.00,Rainwise IP-100,2013-01-09 11:02:00,
2013-01-09 03:07:00,46.3,43.0,30.32,NNE,22,1.4,-999.0,89,0.00,,,0.00,Rainwise IP-100,2013-01-09 11:07:00,
2013-01-09 03:12:00,46.3,43.0,30.34,NNE,22,2.8,-999.0,89,0.00,,,0.00,Rainwise IP-100,2013-01-09 11:12:00,
2013-01-09 03:17:00,46.4,43.0,30.33,WNW,292,0.0,-999.0,89,0.00,,,0.00,Rainwise IP-100,2013-01-09 11:17:00,
2013-01-09 03:22:00,46.2,43.0,30.32,NNE,22,2.1,-999.0,89,0.00,,,0.00,Rainwise IP-100,2013-01-09 11:22:00,
2013-01-09 03:27:00,46.1,43.0,30.33,WNW,292,3.7,-999.0,89,0.00,,,0.00,Rainwise IP-100,2013-01-09 11:27:00,
2013-01-09 03:32:00,46.3,43.0,30.33,NNW,337,3.7,-999.0,89,0.00,,,0.00,Rainwise IP-100,2013-01-09 11:32:00,
2013-01-09 03:37:00,46.4,43.0,30.33,NNW,337,3.3,-999.0,89,0.00,,,0.00,Rainwise IP-100,2013-01-09 11:37:00,
2013-01-09 03:42:00,46.4,42.0,30.33,SE,135,2.6,-999.0,88,0.00,,,0.00,Rainwise IP-100,2013-01-09 11:42:00,
2013-01-09 03:47:00,46.3,42.0,30.32,SE,135,0.0,-999.0,88,0.00,,,0.00,Rainwise IP-100,2013-01-09 11:47:00,
2013-01-09 03:52:00,45.8,43.0,30.33,SW,225,0.0,-999.0,89,0.00,,,0.00,Rainwise IP-100,2013-01-09 11:52:00,
2013-01-09 03:57:00,45.6,43.0,30.33,WNW,292,2.1,-999.0,89,0.00,,,0.00,Rainwise IP-100,2013-01-09 11:57:00,
2013-01-09 04:02:00,45.6,43.0,30.33,WNW,292,2.3,-999.0,90,0.00,,,0.00,Rainwise IP-100,2013-01-09 12:02:00,
2013-01-09 04:07:00,45.8,43.0,30.32,WNW,292,0.0,-999.0,90,0.00,,,0.00,Rainwise IP-100,2013-01-09 12:07:00,
2013-01-09 04:12:00,45.6,43.0,30.32,WNW,292,0.0,-999.0,90,0.00,,,0.00,Rainwise IP-100,2013-01-09 12:12:00,
2013-01-09 04:17:00,45.3,42.0,30.32,NNE,22,0.0,-999.0,90,0.00,,,0.00,Rainwise IP-100,2013-01-09 12:17:00,
2013-01-09 04:22:00,45.2,42.0,30.33,WSW,247,1.4,-999.0,90,0.00,,,0.00,Rainwise IP-100,2013-01-09 12:22:00,
2013-01-09 04:27:00,45.4,42.0,30.32,NNE,22,1.2,-999.0,91,0.00,,,0.00,Rainwise IP-100,2013-01-09 12:27:00,
2013-01-09 04:32:00,45.4,42.0,30.32,NW,315,0.0,-999.0,91,0.00,,,0.00,Rainwise IP-100,2013-01-09 12:32:00,
2013-01-09 04:37:00,45.4,42.0,30.32,NNE,22,3.5,-999.0,91,0.00,,,0.00,Rainwise IP-100,2013-01-09 12:37:00,
2013-01-09 04:42:00,45.5,43.0,30.32,ENE,67,1.2,-999.0,91,0.00,,,0.00,Rainwise IP-100,2013-01-09 12:42:00,
2013-01-09 04:47:00,45.4,42.0,30.32,ENE,67,1.6,-999.0,91,0.00,,,0.00,Rainwise IP-100,2013-01-09 12:47:00,
2013-01-09 04:52:00,45.4,42.0,30.32,NE,45,1.4,-999.0,91,0.00,,,0.00,Rainwise IP-100,2013-01-09 12:52:00,
2013-01-09 04:57:00,45.4,43.0,30.32,NE,45,2.6,-999.0,92,0.00,,,0.00,Rainwise IP-100,2013-01-09 12:57:00,
2013-01-09 05:02:00,45.5,44.0,30.32,East,90,1.2,-999.0,92,0.00,,,0.00,Rainwise IP-100,2013-01-09 13:02:00,
2013-01-09 05:07:00,45.5,44.0,30.31,ESE,112,1.4,-999.0,92,0.00,,,0.00,Rainwise IP-100,2013-01-09 13:07:00,
2013-01-09 05:12:00,45.3,43.0,30.31,ESE,112,0.0,-999.0,92,0.00,,,0.00,Rainwise IP-100,2013-01-09 13:12:00,
2013-01-09 05:17:00,45.1,43.0,30.31,ESE,112,0.0,-999.0,92,0.00,,,0.00,Rainwise IP-100,2013-01-09 13:17:00,
2013-01-09 05:22:00,44.8,43.0,30.31,ESE,112,0.0,-999.0,92,0.00,,,0.00,Rainwise IP-100,2013-01-09 13:22:00,
2013-01-09 05:27:00,44.6,43.0,30.32,WNW,292,1.2,-999.0,93,0.00,,,0.00,Rainwise IP-100,2013-01-09 13:27:00,
2013-01-09 05:32:00,44.7,43.0,30.31,WNW,292,0.0,-999.0,93,0.00,,,0.00,Rainwise IP-100,2013-01-09 13:32:00,
2013-01-09 05:37:00,44.6,43.0,30.31,WNW,292,0.0,-999.0,93,0.00,,,0.00,Rainwise IP-100,2013-01-09 13:37:00,
2013-01-09 05:42:00,44.5,43.0,30.31,WNW,292,2.8,-999.0,93,0.00,,,0.00,Rainwise IP-100,2013-01-09 13:42:00,
2013-01-09 05:47:00,44.7,43.0,30.31,WNW,292,1.4,-999.0,93,0.00,,,0.00,Rainwise IP-100,2013-01-09 13:47:00,
2013-01-09 05:52:00,44.8,43.0,30.31,WNW,292,1.9,-999.0,93,0.00,,,0.00,Rainwise IP-100,2013-01-09 13:52:00,
2013-01-09 05:57:00,44.9,43.0,30.32,WSW,247,0.0,-999.0,92,0.00,,,0.00,Rainwise IP-100,2013-01-09 13:57:00,
2013-01-09 06:02:00,44.9,43.0,30.32,SSW,202,0.0,0.0,92,0.00,,,0.00,Rainwise IP-100,2013-01-09 14:02:00,
2013-01-09 06:07:00,44.7,43.0,30.32,East,90,0.0,2.1,92,0.00,,,0.00,Rainwise IP-100,2013-01-09 14:07:00,
2013-01-09 06:12:00,44.5,43.0,30.31,South,180,0.0,2.1,92,0.00,,,0.00,Rainwise IP-100,2013-01-09 14:12:00,
2013-01-09 06:17:00,44.3,42.0,30.31,ENE,67,0.0,3.3,93,0.00,,,0.00,Rainwise IP-100,2013-01-09 14:17:00,
2013-01-09 06:22:00,44.2,42.0,30.31,SSE,157,1.4,4.0,93,0.00,,,0.00,Rainwise IP-100,2013-01-09 14:22:00,
2013-01-09 06:27:00,44.1,42.0,30.32,SSE,157,0.0,2.8,94,0.00,,,0.00,Rainwise IP-100,2013-01-09 14:27:00,
2013-01-09 06:32:00,44.1,42.0,30.31,SSE,157,0.0,1.9,94,0.00,,,0.00,Rainwise IP-100,2013-01-09 14:32:00,
2013-01-09 06:37:00,44.1,42.0,30.31,SE,135,0.0,2.3,94,0.00,,,0.00,Rainwise IP-100,2013-01-09 14:37:00,
2013-01-09 06:42:00,44.3,43.0,30.31,SSE,157,0.0,2.3,95,0.00,,,0.00,Rainwise IP-100,2013-01-09 14:42:00,
2013-01-09 06:47:00,44.2,43.0,30.31,SSE,157,0.0,0.0,95,0.00,,,0.00,Rainwise IP-100,2013-01-09 14:47:00,
2013-01-09 06:52:00,44.1,43.0,30.31,North,360,0.0,1.9,95,0.00,,,0.00,Rainwise IP-100,2013-01-09 14:52:00,
2013-01-09 06:57:00,44.4,43.0,30.31,South,180,0.0,4.9,95,0.00,,,0.00,Rainwise IP-100,2013-01-09 14:57:00,
2013-01-09 07:02:00,45.0,44.0,30.31,South,180,0.0,2.6,96,0.00,,,0.00,Rainwise IP-100,2013-01-09 15:02:00,
2013-01-09 07:07:00,45.4,44.0,30.31,South,180,0.0,5.1,96,0.00,,,0.00,Rainwise IP-100,2013-01-09 15:07:00,
2013-01-09 07:12:00,45.7,45.0,30.31,WSW,247,2.6,5.4,96,0.00,,,0.00,Rainwise IP-100,2013-01-09 15:12:00,
2013-01-09 07:17:00,46.0,45.0,30.32,WNW,292,3.3,7.2,96,0.00,,,0.00,Rainwise IP-100,2013-01-09 15:17:00,
2013-01-09 07:22:00,46.3,45.0,30.32,South,180,0.0,6.5,96,0.00,,,0.00,Rainwise IP-100,2013-01-09 15:22:00,
2013-01-09 07:27:00,46.4,45.0,30.32,NE,45,0.0,3.0,96,0.00,,,0.00,Rainwise IP-100,2013-01-09 15:27:00,
2013-01-09 07:32:00,46.6,46.0,30.32,NW,315,3.7,8.6,96,0.00,,,0.00,Rainwise IP-100,2013-01-09 15:32:00,
2013-01-09 07:37:00,46.8,46.0,30.31,SSW,202,0.0,4.2,96,0.00,,,0.00,Rainwise IP-100,2013-01-09 15:37:00,
2013-01-09 07:42:00,46.9,46.0,30.31,WNW,292,1.4,3.0,96,0.00,,,0.00,Rainwise IP-100,2013-01-09 15:42:00,
2013-01-09 07:47:00,47.1,46.0,30.32,South,180,0.0,4.4,96,0.00,,,0.00,Rainwise IP-100,2013-01-09 15:47:00,
2013-01-09 07:52:00,47.2,46.0,30.31,WNW,292,0.0,2.8,96,0.00,,,0.00,Rainwise IP-100,2013-01-09 15:52:00,
2013-01-09 07:57:00,47.2,46.0,30.32,West,270,2.6,4.9,97,0.00,,,0.00,Rainwise IP-100,2013-01-09 15:57:00,
2013-01-09 08:02:00,47.3,47.0,30.31,SE,135,0.0,3.7,97,0.00,,,0.00,Rainwise IP-100,2013-01-09 16:02:00,
2013-01-09 08:07:00,47.4,47.0,30.31,SSW,202,0.0,2.3,97,0.00,,,0.00,Rainwise IP-100,2013-01-09 16:07:00,
2013-01-09 08:12:00,47.5,47.0,30.32,SSW,202,0.0,3.7,97,0.00,,,0.00,Rainwise IP-100,2013-01-09 16:12:00,
2013-01-09 08:17:00,47.6,47.0,30.33,SSW,202,1.2,5.4,97,0.00,,,0.00,Rainwise IP-100,2013-01-09 16:17:00,
2013-01-09 08:22:00,47.8,47.5,30.32,SW,225,2.1,4.0,97,0.00,,,0.00,Rainwise IP-100,2013-01-09 16:22:00,
2013-01-09 08:27:00,48.0,47.5,30.32,SSW,202,1.2,4.0,97,0.00,,,0.00,Rainwise IP-100,2013-01-09 16:27:00,
2013-01-09 08:32:00,48.2,47.5,30.32,SSW,202,0.0,5.8,97,0.00,,,0.00,Rainwise IP-100,2013-01-09 16:32:00,
2013-01-09 08:37:00,48.3,47.5,30.32,WSW,247,1.9,5.1,97,0.00,,,0.00,Rainwise IP-100,2013-01-09 16:37:00,
2013-01-09 08:42:00,48.4,47.5,30.32,WSW,247,0.0,4.9,97,0.00,,,0.00,Rainwise IP-100,2013-01-09 16:42:00,
2013-01-09 08:47:00,48.6,48.0,30.32,WNW,292,2.8,4.7,97,0.00,,,0.00,Rainwise IP-100,2013-01-09 16:47:00,
2013-01-09 08:52:00,48.6,48.0,30.32,West,270,2.6,5.4,96,0.00,,,0.00,Rainwise IP-100,2013-01-09 16:52:00,
2013-01-09 08:57:00,48.7,48.0,30.33,WNW,292,4.9,5.6,96,0.00,,,0.00,Rainwise IP-100,2013-01-09 16:57:00,
2013-01-09 09:02:00,48.8,48.0,30.32,NNW,337,1.6,6.3,96,0.00,,,0.00,Rainwise IP-100,2013-01-09 17:02:00,
2013-01-09 09:07:00,48.9,48.0,30.32,WNW,292,0.0,3.7,96,0.00,,,0.00,Rainwise IP-100,2013-01-09 17:07:00,
2013-01-09 09:12:00,49.0,48.0,30.32,WSW,247,0.0,2.1,96,0.00,,,0.00,Rainwise IP-100,2013-01-09 17:12:00,
2013-01-09 09:17:00,49.2,47.5,30.32,SSE,157,0.0,3.7,95,0.00,,,0.00,Rainwise IP-100,2013-01-09 17:17:00,
2013-01-09 09:22:00,49.6,48.0,30.33,SSW,202,1.6,3.7,95,0.00,,,0.00,Rainwise IP-100,2013-01-09 17:22:00,
2013-01-09 09:27:00,49.9,48.0,30.32,SSW,202,0.0,3.5,94,0.00,,,0.00,Rainwise IP-100,2013-01-09 17:27:00,
2013-01-09 09:32:00,50.3,48.0,30.33,WNW,292,1.2,7.7,93,0.00,,,0.00,Rainwise IP-100,2013-01-09 17:32:00,
2013-01-09 09:37:00,50.3,48.0,30.33,East,90,0.0,6.1,92,0.00,,,0.00,Rainwise IP-100,2013-01-09 17:37:00,
2013-01-09 09:42:00,50.2,47.5,30.33,WNW,292,3.0,4.9,91,0.00,,,0.00,Rainwise IP-100,2013-01-09 17:42:00,
2013-01-09 09:47:00,50.1,47.5,30.33,WSW,247,5.6,6.1,91,0.00,,,0.00,Rainwise IP-100,2013-01-09 17:47:00,
2013-01-09 09:52:00,50.2,47.0,30.32,WNW,292,0.0,6.5,90,0.00,,,0.00,Rainwise IP-100,2013-01-09 17:52:00,
2013-01-09 09:57:00,50.3,47.5,30.33,WNW,292,3.0,4.9,89,0.00,,,0.00,Rainwise IP-100,2013-01-09 17:57:00,
2013-01-09 10:02:00,50.5,47.5,30.33,WNW,292,0.0,8.6,89,0.00,,,0.00,Rainwise IP-100,2013-01-09 18:02:00,
2013-01-09 10:07:00,50.5,47.5,30.33,WSW,247,2.1,4.9,88,0.00,,,0.00,Rainwise IP-100,2013-01-09 18:07:00,
2013-01-09 10:12:00,50.4,47.5,30.32,WSW,247,4.7,7.0,88,0.00,,,0.00,Rainwise IP-100,2013-01-09 18:12:00,
2013-01-09 10:17:00,50.1,47.0,30.32,WSW,247,3.3,7.0,88,0.00,,,0.00,Rainwise IP-100,2013-01-09 18:17:00,
2013-01-09 10:22:00,50.0,47.0,30.32,SW,225,3.7,6.8,88,0.00,,,0.00,Rainwise IP-100,2013-01-09 18:22:00,
2013-01-09 10:27:00,50.1,47.0,30.32,SW,225,1.6,5.4,89,0.00,,,0.00,Rainwise IP-100,2013-01-09 18:27:00,
2013-01-09 10:32:00,50.0,47.0,30.31,SSW,202,1.2,4.7,89,0.00,,,0.00,Rainwise IP-100,2013-01-09 18:32:00,
2013-01-09 10:37:00,50.3,47.5,30.31,WNW,292,1.6,7.2,89,0.00,,,0.00,Rainwise IP-100,2013-01-09 18:37:00,
2013-01-09 10:41:00,50.7,47.5,30.31,SSW,202,2.8,7.2,89,0.00,,,0.00,Rainwise IP-100,2013-01-09 18:41:00,
2013-01-09 10:44:00,50.9,47.5,30.31,SSE,157,2.3,4.9,88,0.00,,,0.00,Rainwise IP-100,2013-01-09 18:44:00,
2013-01-09 10:48:00,51.2,47.5,30.31,SE,135,1.9,5.4,88,0.00,,,0.00,Rainwise IP-100,2013-01-09 18:48:00,
2013-01-09 10:53:00,51.6,48.0,30.30,SW,225,1.6,6.8,87,0.00,,,0.00,Rainwise IP-100,2013-01-09 18:53:00,
2013-01-09 10:58:00,52.0,48.0,30.30,South,180,1.4,6.3,86,0.00,,,0.00,Rainwise IP-100,2013-01-09 18:58:00,
2013-01-09 11:03:00,52.2,48.0,30.31,WNW,292,3.0,6.3,86,0.00,,,0.00,Rainwise IP-100,2013-01-09 19:03:00,
2013-01-09 11:08:00,52.5,48.0,30.30,NW,315,0.0,4.9,85,0.00,,,0.00,Rainwise IP-100,2013-01-09 19:08:00,
2013-01-09 11:13:00,52.7,48.0,30.30,SSW,202,0.0,6.3,85,0.00,,,0.00,Rainwise IP-100,2013-01-09 19:13:00,
2013-01-09 11:18:00,52.6,48.0,30.30,SW,225,3.0,6.8,84,0.00,,,0.00,Rainwise IP-100,2013-01-09 19:18:00,
2013-01-09 11:23:00,52.5,48.0,30.28,SSE,157,2.1,7.5,84,0.00,,,0.00,Rainwise IP-100,2013-01-09 19:23:00,
2013-01-09 11:28:00,52.4,47.5,30.29,WSW,247,5.1,8.6,85,0.00,,,0.00,Rainwise IP-100,2013-01-09 19:28:00,
2013-01-09 11:33:00,52.1,47.5,30.29,SW,225,5.6,9.6,85,0.00,,,0.00,Rainwise IP-100,2013-01-09 19:33:00,
2013-01-09 11:38:00,51.8,48.0,30.29,WSW,247,2.3,9.3,86,0.00,,,0.00,Rainwise IP-100,2013-01-09 19:38:00,
2013-01-09 11:43:00,51.4,47.5,30.28,SW,225,1.4,9.3,87,0.00,,,0.00,Rainwise IP-100,2013-01-09 19:43:00,
2013-01-09 11:48:00,51.3,47.5,30.28,SW,225,1.2,5.1,88,0.00,,,0.00,Rainwise IP-100,2013-01-09 19:48:00,
2013-01-09 11:53:00,51.4,47.5,30.27,NNW,337,0.0,8.4,88,0.00,,,0.00,Rainwise IP-100,2013-01-09 19:53:00,
2013-01-09 11:58:00,51.4,47.5,30.27,WSW,247,4.7,7.2,88,0.00,,,0.00,Rainwise IP-100,2013-01-09 19:58:00,
2013-01-09 12:03:00,51.3,47.5,30.28,West,270,2.8,11.0,88,0.00,,,0.00,Rainwise IP-100,2013-01-09 20:03:00,
2013-01-09 12:08:00,51.2,47.5,30.27,SW,225,0.0,9.8,88,0.00,,,0.00,Rainwise IP-100,2013-01-09 20:08:00,
2013-01-09 12:13:00,51.2,47.5,30.27,SSE,157,2.3,8.2,88,0.00,,,0.00,Rainwise IP-100,2013-01-09 20:13:00,
2013-01-09 12:18:00,51.3,47.5,30.27,WNW,292,2.8,7.9,88,0.00,,,0.00,Rainwise IP-100,2013-01-09 20:18:00,
2013-01-09 12:23:00,51.3,48.0,30.27,SW,225,2.8,6.3,89,0.00,,,0.00,Rainwise IP-100,2013-01-09 20:23:00,
2013-01-09 12:28:00,51.3,48.0,30.26,WSW,247,3.0,7.5,89,0.00,,,0.00,Rainwise IP-100,2013-01-09 20:28:00,
2013-01-09 12:33:00,51.3,48.0,30.25,WSW,247,0.0,9.1,89,0.00,,,0.00,Rainwise IP-100,2013-01-09 20:33:00,
2013-01-09 12:38:00,51.4,48.0,30.25,SW,225,4.0,8.4,89,0.00,,,0.00,Rainwise IP-100,2013-01-09 20:38:00,
2013-01-09 12:43:00,51.4,48.0,30.25,West,270,5.6,6.5,89,0.00,,,0.00,Rainwise IP-100,2013-01-09 20:43:00,
2013-01-09 12:48:00,51.3,48.0,30.26,SW,225,8.6,10.7,89,0.00,,,0.00,Rainwise IP-100,2013-01-09 20:48:00,
2013-01-09 12:53:00,51.1,48.0,30.25,NW,315,5.1,9.6,89,0.00,,,0.00,Rainwise IP-100,2013-01-09 20:53:00,
2013-01-09 12:58:00,51.1,48.0,30.25,SSE,157,2.1,8.9,89,0.00,,,0.00,Rainwise IP-100,2013-01-09 20:58:00,
2013-01-09 13:03:00,51.2,48.0,30.25,SSE,157,3.0,7.2,90,0.00,,,0.00,Rainwise IP-100,2013-01-09 21:03:00,
2013-01-09 13:08:00,51.2,48.0,30.25,SW,225,7.0,11.2,90,0.00,,,0.00,Rainwise IP-100,2013-01-09 21:08:00,
2013-01-09 13:13:00,51.1,48.0,30.25,SW,225,1.2,14.2,90,0.00,,,0.00,Rainwise IP-100,2013-01-09 21:13:00,
2013-01-09 13:18:00,51.0,49.0,30.25,SW,225,10.7,10.7,91,0.00,,,0.00,Rainwise IP-100,2013-01-09 21:18:00,
2013-01-09 13:23:00,51.0,49.0,30.25,SW,225,7.0,10.7,91,0.00,,,0.00,Rainwise IP-100,2013-01-09 21:23:00,
2013-01-09 13:28:00,51.0,49.0,30.25,SW,225,1.4,11.2,92,0.00,,,0.00,Rainwise IP-100,2013-01-09 21:28:00,
2013-01-09 13:33:00,51.1,49.0,30.24,WNW,292,1.9,11.7,92,0.00,,,0.00,Rainwise IP-100,2013-01-09 21:33:00,
2013-01-09 13:38:00,51.1,49.0,30.24,SW,225,9.6,12.1,92,0.00,,,0.00,Rainwise IP-100,2013-01-09 21:38:00,
2013-01-09 13:43:00,51.2,49.0,30.24,NNW,337,1.9,11.0,93,0.00,,,0.00,Rainwise IP-100,2013-01-09 21:43:00,
2013-01-09 13:48:00,51.4,49.0,30.24,SW,225,3.5,10.3,92,0.00,,,0.00,Rainwise IP-100,2013-01-09 21:48:00,
2013-01-09 13:53:00,51.5,50.0,30.24,SW,225,4.0,11.2,92,0.00,,,0.00,Rainwise IP-100,2013-01-09 21:53:00,
2013-01-09 13:58:00,51.4,49.0,30.24,WNW,292,2.1,7.0,93,0.00,,,0.00,Rainwise IP-100,2013-01-09 21:58:00,
2013-01-09 14:03:00,51.3,50.0,30.23,SW,225,3.7,9.1,94,0.00,,,0.00,Rainwise IP-100,2013-01-09 22:03:00,
2013-01-09 14:08:00,51.2,50.0,30.24,SW,225,7.9,10.3,95,0.00,,,0.00,Rainwise IP-100,2013-01-09 22:08:00,
2013-01-09 14:13:00,51.1,50.0,30.24,SSW,202,6.5,12.4,95,0.00,,,0.00,Rainwise IP-100,2013-01-09 22:13:00,
2013-01-09 14:18:00,50.8,50.0,30.24,SSW,202,1.2,12.1,96,0.00,,,0.00,Rainwise IP-100,2013-01-09 22:18:00,
2013-01-09 14:23:00,50.7,50.0,30.23,West,270,11.7,11.7,97,0.00,,,0.00,Rainwise IP-100,2013-01-09 22:23:00,
2013-01-09 14:28:00,50.5,50.0,30.24,WNW,292,12.4,18.0,97,0.00,,,0.00,Rainwise IP-100,2013-01-09 22:28:00,
2013-01-09 14:33:00,50.1,49.0,30.23,WNW,292,7.0,19.6,96,0.00,,,0.00,Rainwise IP-100,2013-01-09 22:33:00,
2013-01-09 14:38:00,49.7,49.0,30.23,West,270,13.3,18.9,96,0.00,,,0.00,Rainwise IP-100,2013-01-09 22:38:00,
2013-01-09 14:43:00,49.1,48.0,30.23,WNW,292,14.2,17.5,96,0.00,,,0.00,Rainwise IP-100,2013-01-09 22:43:00,
2013-01-09 14:48:00,48.8,48.0,30.23,WNW,292,5.6,18.7,96,0.00,,,0.00,Rainwise IP-100,2013-01-09 22:48:00,
2013-01-09 14:53:00,48.9,48.0,30.23,WNW,292,7.7,15.6,96,0.00,,,0.00,Rainwise IP-100,2013-01-09 22:53:00,
2013-01-09 14:58:00,49.0,48.0,30.23,WNW,292,9.1,13.1,96,0.00,,,0.00,Rainwise IP-100,2013-01-09 22:58:00,
2013-01-09 15:03:00,48.8,47.5,30.22,WNW,292,16.1,18.4,95,0.00,,,0.00,Rainwise IP-100,2013-01-09 23:03:00,
2013-01-09 15:08:00,48.5,47.5,30.23,West,270,6.1,26.1,95,0.06,,,0.01,Rainwise IP-100,2013-01-09 23:08:00,
2013-01-09 15:13:00,48.3,47.0,30.24,WNW,292,10.7,19.8,94,0.06,,,0.01,Rainwise IP-100,2013-01-09 23:13:00,
2013-01-09 15:18:00,48.2,47.0,30.24,WNW,292,8.2,20.3,94,0.00,,,0.01,Rainwise IP-100,2013-01-09 23:18:00,
2013-01-09 15:23:00,48.2,47.0,30.24,West,270,5.4,20.3,94,0.00,,,0.01,Rainwise IP-100,2013-01-09 23:23:00,
2013-01-09 15:28:00,48.0,47.0,30.24,North,360,5.6,25.4,94,0.00,,,0.01,Rainwise IP-100,2013-01-09 23:28:00,
2013-01-09 15:33:00,47.8,46.0,30.23,NNW,337,13.3,19.1,92,0.00,,,0.01,Rainwise IP-100,2013-01-09 23:33:00,
2013-01-09 15:38:00,47.9,46.0,30.24,WNW,292,9.3,17.7,90,0.00,,,0.01,Rainwise IP-100,2013-01-09 23:38:00,
2013-01-09 15:43:00,48.0,45.0,30.24,WNW,292,10.3,17.3,88,0.00,,,0.01,Rainwise IP-100,2013-01-09 23:43:00,
2013-01-09 15:48:00,48.1,45.0,30.23,WNW,292,4.7,13.1,88,0.00,,,0.01,Rainwise IP-100,2013-01-09 23:48:00,
2013-01-09 15:53:00,48.2,45.0,30.23,WSW,247,7.2,14.5,88,0.00,,,0.01,Rainwise IP-100,2013-01-09 23:53:00,
2013-01-09 15:58:00,48.4,45.0,30.24,WNW,292,7.2,22.2,88,0.00,,,0.01,Rainwise IP-100,2013-01-09 23:58:00,
2013-01-09 16:03:00,48.5,45.0,30.24,WSW,247,2.8,17.3,87,0.00,,,0.01,Rainwise IP-100,2013-01-10 00:03:00,
2013-01-09 16:08:00,48.3,45.0,30.24,WNW,292,9.1,13.1,87,0.00,,,0.01,Rainwise IP-100,2013-01-10 00:08:00,
2013-01-09 16:13:00,47.8,45.0,30.23,WSW,247,5.8,18.9,88,0.00,,,0.01,Rainwise IP-100,2013-01-10 00:13:00,
2013-01-09 16:18:00,47.6,44.0,30.24,NW,315,1.6,11.2,87,0.00,,,0.01,Rainwise IP-100,2013-01-10 00:18:00,
2013-01-09 16:23:00,47.5,43.0,30.24,NNW,337,2.1,14.7,85,0.00,,,0.01,Rainwise IP-100,2013-01-10 00:23:00,
2013-01-09 16:28:00,47.5,42.0,30.23,NW,315,5.4,15.4,83,0.00,,,0.01,Rainwise IP-100,2013-01-10 00:28:00,
2013-01-09 16:33:00,47.6,42.0,30.23,WNW,292,4.4,18.0,83,0.00,,,0.01,Rainwise IP-100,2013-01-10 00:33:00,
2013-01-09 16:38:00,47.7,42.0,30.24,WNW,292,4.0,12.8,82,0.00,,,0.01,Rainwise IP-100,2013-01-10 00:38:00,
2013-01-09 16:43:00,47.7,42.0,30.23,NNW,337,1.6,11.9,82,0.00,,,0.01,Rainwise IP-100,2013-01-10 00:43:00,
2013-01-09 16:48:00,47.8,43.0,30.24,WNW,292,6.8,11.0,81,0.00,,,0.01,Rainwise IP-100,2013-01-10 00:48:00,
2013-01-09 16:53:00,47.8,43.0,30.23,NW,315,4.0,10.7,81,0.00,,,0.01,Rainwise IP-100,2013-01-10 00:53:00,
2013-01-09 16:58:00,47.8,42.0,30.23,WNW,292,0.0,8.4,80,0.00,,,0.01,Rainwise IP-100,2013-01-10 00:58:00,
2013-01-09 17:03:00,47.7,41.0,30.24,ESE,112,1.4,6.5,79,0.00,,,0.01,Rainwise IP-100,2013-01-10 01:03:00,
2013-01-09 17:08:00,47.6,41.0,30.23,West,270,5.6,9.3,79,0.00,,,0.01,Rainwise IP-100,2013-01-10 01:08:00,
2013-01-09 17:13:00,47.5,41.0,30.24,NW,315,0.0,10.3,79,0.00,,,0.01,Rainwise IP-100,2013-01-10 01:13:00,
2013-01-09 17:18:00,47.5,41.0,30.23,ESE,112,4.0,6.1,79,0.00,,,0.01,Rainwise IP-100,2013-01-10 01:18:00,
2013-01-09 17:23:00,47.4,41.0,30.23,WSW,247,4.4,9.6,78,0.00,,,0.01,Rainwise IP-100,2013-01-10 01:23:00,
2013-01-09 17:28:00,47.5,40.0,30.23,WNW,292,6.5,10.5,77,0.00,,,0.01,Rainwise IP-100,2013-01-10 01:28:00,
2013-01-09 17:33:00,47.6,40.0,30.24,WNW,292,4.9,13.3,77,0.00,,,0.01,Rainwise IP-100,2013-01-10 01:33:00,
2013-01-09 17:38:00,47.7,40.0,30.24,West,270,4.0,17.3,76,0.00,,,0.01,Rainwise IP-100,2013-01-10 01:38:00,
2013-01-09 17:43:00,47.8,41.0,30.24,WNW,292,2.6,19.4,75,0.00,,,0.01,Rainwise IP-100,2013-01-10 01:43:00,
2013-01-09 17:48:00,47.9,41.0,30.24,NNE,22,5.6,17.7,75,0.00,,,0.01,Rainwise IP-100,2013-01-10 01:48:00,
2013-01-09 17:53:00,47.8,40.0,30.24,North,360,2.1,11.9,74,0.00,,,0.01,Rainwise IP-100,2013-01-10 01:53:00,
2013-01-09 17:58:00,47.8,40.0,30.24,NW,315,3.7,7.2,74,0.00,,,0.01,Rainwise IP-100,2013-01-10 01:58:00,
2013-01-09 18:03:00,47.8,40.0,30.24,NW,315,8.6,12.8,74,0.00,,,0.01,Rainwise IP-100,2013-01-10 02:03:00,
2013-01-09 18:08:00,47.7,39.0,30.24,NNE,22,0.0,13.1,74,0.00,,,0.01,Rainwise IP-100,2013-01-10 02:08:00,
2013-01-09 18:13:00,47.7,39.0,30.24,North,360,3.0,15.9,74,0.00,,,0.01,Rainwise IP-100,2013-01-10 02:13:00,
2013-01-09 18:18:00,47.6,40.0,30.24,WNW,292,6.5,13.5,75,0.00,,,0.01,Rainwise IP-100,2013-01-10 02:18:00,
2013-01-09 18:23:00,47.5,39.0,30.24,West,270,4.9,9.8,74,0.00,,,0.01,Rainwise IP-100,2013-01-10 02:23:00,
2013-01-09 18:28:00,47.4,39.0,30.24,NW,315,3.3,12.1,74,0.00,,,0.01,Rainwise IP-100,2013-01-10 02:28:00,
2013-01-09 18:33:00,47.3,39.0,30.24,NNW,337,3.0,9.1,74,0.00,,,0.01,Rainwise IP-100,2013-01-10 02:33:00,
2013-01-09 18:38:00,47.2,39.0,30.24,WNW,292,4.7,12.4,74,0.00,,,0.01,Rainwise IP-100,2013-01-10 02:38:00,
2013-01-09 18:43:00,47.2,39.0,30.24,WNW,292,5.1,12.4,74,0.00,,,0.01,Rainwise IP-100,2013-01-10 02:43:00,
2013-01-09 18:48:00,47.2,39.0,30.24,WNW,292,3.5,16.6,74,0.00,,,0.01,Rainwise IP-100,2013-01-10 02:48:00,
2013-01-09 18:53:00,47.1,39.0,30.25,WNW,292,3.3,14.5,74,0.00,,,0.01,Rainwise IP-100,2013-01-10 02:53:00,
2013-01-09 18:58:00,47.0,39.0,30.25,WNW,292,3.5,10.3,74,0.00,,,0.01,Rainwise IP-100,2013-01-10 02:58:00,
2013-01-09 19:03:00,46.9,39.0,30.25,NNW,337,1.9,10.0,75,0.00,,,0.01,Rainwise IP-100,2013-01-10 03:03:00,
2013-01-09 19:08:00,46.8,39.0,30.25,North,360,4.2,8.6,74,0.00,,,0.01,Rainwise IP-100,2013-01-10 03:08:00,
2013-01-09 19:13:00,46.7,39.0,30.25,North,360,1.4,11.4,75,0.00,,,0.01,Rainwise IP-100,2013-01-10 03:13:00,
2013-01-09 19:18:00,46.5,39.0,30.25,West,270,2.3,7.2,75,0.00,,,0.01,Rainwise IP-100,2013-01-10 03:18:00,
2013-01-09 19:23:00,46.4,38.0,30.25,SSW,202,3.0,13.5,74,0.00,,,0.01,Rainwise IP-100,2013-01-10 03:23:00,
2013-01-09 19:28:00,46.4,38.0,30.25,WNW,292,6.5,6.5,73,0.00,,,0.01,Rainwise IP-100,2013-01-10 03:28:00,
2013-01-09 19:33:00,46.4,38.0,30.25,WNW,292,12.6,12.6,73,0.00,,,0.01,Rainwise IP-100,2013-01-10 03:33:00,
2013-01-09 19:38:00,46.4,38.0,30.25,NNW,337,1.2,12.6,73,0.00,,,0.01,Rainwise IP-100,2013-01-10 03:38:00,
2013-01-09 19:43:00,46.3,38.0,30.25,SW,225,0.0,5.1,74,0.00,,,0.01,Rainwise IP-100,2013-01-10 03:43:00,
2013-01-09 19:48:00,46.1,38.0,30.25,WSW,247,1.2,13.1,74,0.00,,,0.01,Rainwise IP-100,2013-01-10 03:48:00,
2013-01-09 19:53:00,46.1,38.0,30.26,WNW,292,7.0,10.3,75,0.00,,,0.01,Rainwise IP-100,2013-01-10 03:53:00,
2013-01-09 19:58:00,46.2,38.0,30.25,WNW,292,4.2,12.8,75,0.00,,,0.01,Rainwise IP-100,2013-01-10 03:58:00,
2013-01-09 20:03:00,46.3,39.0,30.26,NNW,337,2.3,11.9,76,0.00,,,0.01,Rainwise IP-100,2013-01-10 04:03:00,
2013-01-09 20:08:00,46.4,39.0,30.26,SSE,157,0.0,8.4,76,0.00,,,0.01,Rainwise IP-100,2013-01-10 04:08:00,
2013-01-09 20:13:00,46.3,38.0,30.26,NW,315,0.0,4.7,75,0.00,,,0.01,Rainwise IP-100,2013-01-10 04:13:00,
2013-01-09 20:18:00,46.1,38.0,30.26,WNW,292,2.8,11.7,75,0.00,,,0.01,Rainwise IP-100,2013-01-10 04:18:00,
2013-01-09 20:23:00,46.2,38.0,30.26,NW,315,5.8,8.4,75,0.00,,,0.01,Rainwise IP-100,2013-01-10 04:23:00,
2013-01-09 20:28:00,46.3,38.0,30.26,NNW,337,1.9,18.9,74,0.00,,,0.01,Rainwise IP-100,2013-01-10 04:28:00,
2013-01-09 20:33:00,46.4,38.0,30.27,WNW,292,1.9,11.0,74,0.00,,,0.01,Rainwise IP-100,2013-01-10 04:33:00,
2013-01-09 20:38:00,46.3,38.0,30.27,WNW,292,2.1,15.6,74,0.00,,,0.01,Rainwise IP-100,2013-01-10 04:38:00,
2013-01-09 20:43:00,46.3,38.0,30.26,NNW,337,8.4,18.4,73,0.00,,,0.01,Rainwise IP-100,2013-01-10 04:43:00,
2013-01-09 20:48:00,46.3,38.0,30.27,WNW,292,6.3,10.0,73,0.00,,,0.01,Rainwise IP-100,2013-01-10 04:48:00,
2013-01-09 20:53:00,46.3,38.0,30.28,WNW,292,4.9,11.0,73,0.00,,,0.01,Rainwise IP-100,2013-01-10 04:53:00,
2013-01-09 20:58:00,46.3,38.0,30.28,NNW,337,5.8,10.0,73,0.00,,,0.01,Rainwise IP-100,2013-01-10 04:58:00,
2013-01-09 21:00:00,46.3,38.0,30.27,WNW,292,3.3,8.4,73,0.00,,,0.01,Rainwise IP-100,2013-01-10 05:00:00,
2013-01-09 21:05:00,46.2,37.0,30.28,WNW,292,2.6,9.3,72,0.00,,,0.01,Rainwise IP-100,2013-01-10 05:05:00,
2013-01-09 21:10:00,46.0,38.0,30.27,NNW,337,4.7,10.7,73,0.00,,,0.01,Rainwise IP-100,2013-01-10 05:10:00,
2013-01-09 21:15:00,46.0,38.0,30.28,South,180,0.0,6.1,73,0.00,,,0.01,Rainwise IP-100,2013-01-10 05:15:00,
2013-01-09 21:20:00,45.8,38.0,30.28,NNW,337,2.1,9.1,75,0.00,,,0.01,Rainwise IP-100,2013-01-10 05:20:00,
2013-01-09 21:25:00,45.8,39.0,30.28,WNW,292,9.1,9.1,76,0.00,,,0.01,Rainwise IP-100,2013-01-10 05:25:00,
2013-01-09 21:30:00,45.9,39.0,30.28,WNW,292,2.1,11.2,76,0.00,,,0.01,Rainwise IP-100,2013-01-10 05:30:00,
2013-01-09 21:35:00,46.0,38.0,30.28,NNW,337,1.2,15.9,75,0.00,,,0.01,Rainwise IP-100,2013-01-10 05:35:00,
2013-01-09 21:40:00,46.0,38.0,30.28,WNW,292,0.0,11.7,74,0.00,,,0.01,Rainwise IP-100,2013-01-10 05:40:00,
2013-01-09 21:45:00,46.1,38.0,30.28,WNW,292,3.3,7.5,74,0.00,,,0.01,Rainwise IP-100,2013-01-10 05:45:00,
2013-01-09 21:50:00,46.2,38.0,30.28,SSE,157,1.2,11.4,74,0.00,,,0.01,Rainwise IP-100,2013-01-10 05:50:00,
2013-01-09 21:55:00,46.2,38.0,30.28,NNW,337,7.0,8.2,74,0.00,,,0.01,Rainwise IP-100,2013-01-10 05:55:00,
2013-01-09 22:00:00,46.2,38.0,30.28,NE,45,2.6,12.4,73,0.00,,,0.01,Rainwise IP-100,2013-01-10 06:00:00,
2013-01-09 22:05:00,46.1,37.0,30.28,NNW,337,3.3,11.7,72,0.00,,,0.01,Rainwise IP-100,2013-01-10 06:05:00,
2013-01-09 22:10:00,45.9,37.0,30.28,West,270,3.3,15.2,72,0.00,,,0.01,Rainwise IP-100,2013-01-10 06:10:00,
2013-01-09 22:15:00,45.8,37.0,30.28,SW,225,2.1,12.8,72,0.00,,,0.01,Rainwise IP-100,2013-01-10 06:15:00,
2013-01-09 22:20:00,45.5,37.0,30.29,WNW,292,2.1,15.6,72,0.00,,,0.01,Rainwise IP-100,2013-01-10 06:20:00,
2013-01-09 22:25:00,45.4,37.0,30.29,NW,315,5.1,13.1,72,0.00,,,0.01,Rainwise IP-100,2013-01-10 06:25:00,
2013-01-09 22:30:00,45.4,37.0,30.28,WNW,292,4.0,13.1,73,0.00,,,0.01,Rainwise IP-100,2013-01-10 06:30:00,
2013-01-09 22:35:00,45.2,37.0,30.29,NNE,22,1.2,5.8,73,0.00,,,0.01,Rainwise IP-100,2013-01-10 06:35:00,
2013-01-09 22:40:00,44.9,37.0,30.29,WNW,292,4.7,6.3,73,0.00,,,0.01,Rainwise IP-100,2013-01-10 06:40:00,
2013-01-09 22:45:00,44.7,37.0,30.29,WNW,292,3.7,8.2,74,0.00,,,0.01,Rainwise IP-100,2013-01-10 06:45:00,
2013-01-09 22:50:00,44.6,37.0,30.29,WSW,247,3.0,12.4,74,0.00,,,0.01,Rainwise IP-100,2013-01-10 06:50:00,
2013-01-09 22:55:00,44.6,37.0,30.29,NW,315,3.5,8.2,74,0.00,,,0.01,Rainwise IP-100,2013-01-10 06:55:00,
2013-01-09 23:00:00,44.5,38.0,30.29,West,270,5.8,11.7,75,0.00,,,0.01,Rainwise IP-100,2013-01-10 07:00:00,
2013-01-09 23:05:00,44.5,38.0,30.29,WNW,292,5.6,11.7,75,0.00,,,0.01,Rainwise IP-100,2013-01-10 07:05:00,
2013-01-09 23:10:00,44.5,38.0,30.29,WNW,292,4.4,9.6,75,0.00,,,0.01,Rainwise IP-100,2013-01-10 07:10:00,
2013-01-09 23:15:00,44.6,38.0,30.30,WNW,292,5.4,8.9,75,0.00,,,0.01,Rainwise IP-100,2013-01-10 07:15:00,
2013-01-09 23:20:00,44.6,38.0,30.30,NW,315,1.6,8.2,75,0.00,,,0.01,Rainwise IP-100,2013-01-10 07:20:00,
2013-01-09 23:25:00,44.5,38.0,30.29,NW,315,4.9,8.6,75,0.00,,,0.01,Rainwise IP-100,2013-01-10 07:25:00,
2013-01-09 23:30:00,44.4,37.0,30.29,West,270,8.2,8.6,75,0.00,,,0.01,Rainwise IP-100,2013-01-10 07:30:00,
2013-01-09 23:35:00,44.5,38.0,30.29,WNW,292,2.8,11.2,75,0.00,,,0.01,Rainwise IP-100,2013-01-10 07:35:00,
2013-01-09 23:40:00,44.5,38.0,30.29,WNW,292,5.4,8.9,75,0.00,,,0.01,Rainwise IP-100,2013-01-10 07:40:00,
2013-01-09 23:45:00,44.4,37.0,30.30,NW,315,0.0,8.9,75,0.00,,,0.01,Rainwise IP-100,2013-01-10 07:45:00,
2013-01-09 23:50:00,44.4,37.0,30.30,SE,135,0.0,3.7,75,0.00,,,0.01,Rainwise IP-100,2013-01-10 07:50:00,
2013-01-09 23:55:00,44.2,37.0,30.29,West,270,2.6,6.3,75,0.00,,,0.01,Rainwise IP-100,2013-01-10 07:55:00,